COSMOS 249 DEB, 6752

Orbit data source: Space-Track

COSMOS 249 DEB, 6752 is space debris in LEO originally from a launch on Sun, 20 Oct 1968 UTC launched from the Tyuratam Missile And Space Complex (TTMTR). Debris objects in space refer to the collection of defunct objects orbiting the Earth. Examples of debris include non-operational satellites, rocket bodies, and fragments generated from explosions, collisions, or faulty payload assembly.

Loading next visibility...
Identifier
6752, 1968-091CJ
Orbit
LEO
Country
Flag of CISCIS
Related business
Manufacturer
Unknown
Mission
Spacecraft
Bus & Motor
Unknown
Mass
Unknown
Launch date (UTC)
1968-10-20 (57 years ago)
Launch vehicle
Unknown
Launch site
Tyuratam Missile And Space Complex (TTMTR)
Object type
Payload
Rocket body
Debris
Shape & HBR
Unknown shape, 0.1 m
Radar Cross Section
Small (<0.1 m²)

Expand to show TLE details & history
Last TLE update: 13 hours ago

TLE from 13 hours ago
0 COSMOS 249 DEB
1  6752U 68091CJ  26035.60381901  .00001622  00000-0  14781-2 0  9992
2  6752  62.2744 118.1586 0652486 109.7699 257.4841 13.16745747641804
Epoch: 2026-02-04T14:29Z
TLE epoch observation values (Epoch: 2026-02-04T14:29:29.962Z)
Latitude
-0.00003°
Longitude
126.01572°
Altitude
1,335.985 km
Speed
7.125 km/s
True Right ascension
07h 52m 38s
True Declination
0° 00' 00"
Sunlit
Object was in full shadow at epoch
Visualization orbit readout
Latitude
Unknown
Longitude
Unknown
Altitude
Unknown
Speed
Unknown
Apparent Right ascension
Unknown
Apparent Declination
Unknown
Sunlit
N/A
Visualization observer readout
Local Sidereal Time
05:54:25
Azimuth
Unknown
Elevation
Unknown
Doppler factor
Unknown
Orbital elements
Apogee altitude
1,690.366 km
Perigee altitude
701.943 km
Semi-major axis
7,574.291 km
Eccentricity
0.06525
Inclination
62.2744°
RAAN
118.1586°
Arg. of periapsis
109.7699°
True anomaly
250.33029°
Mean anomaly
257.4841°
Eccentric anomaly
253.89239°
Mean motion
3.29253 °/min
Orbital period
109.34 mins
BSTAR
0.0014781
Loading maneuver chart data...
Computing Atmospheric mass density...

Documentation

Showing up to 5 results
|